Regional Weather Roundup
Issued by NWS Midland/Odessa, TX

Skip options and go directly to product.
Home | Oldest Version | Previous Version | Current Version | All | Text Only | Save Text | Print | Product List | Glossary On

Skip product version selection by date and time.   
330
ASUS44 KMAF 270010
RWRMAF
MIDLAND AREA WEATHER ROUNDUP
NATIONAL WEATHER SERVICE MIDLAND TX
700 PM CDT SUN JUN 26 2016

...IN SOUTHWEST TEXAS AND SOUTHEAST NEW MEXICO...

CITY           SKY/WX    TMP DP  RH WIND       PRES   REMARKS
ALPINE         MOSUNNY   78  61  54 SE6       30.18F
ANDREWS        FAIR      81  59  47 SE8       30.11F
ARTESIA        CLOUDY    79  66  65 E13       30.10S
BIG SPRING     MOSUNNY   75  60  60 SE9       30.13R
CARLSBAD       CLOUDY    90  54  29 E14       30.05R
DRYDEN           N/A     88  66  48 SE18G24   30.00S
FORT STOCKTON  PTSUNNY   84  63  49 S14       30.06R THUNDER
GUAD PASS      CLOUDY    81  50  33 E13         N/A
HOBBS          MOSUNNY   82  57  42 E13G18    30.13S
MARFA          CLOUDY   N/A N/A N/A SE9       30.15F
MIDLAND AIRPK  MOSUNNY   78  69  74 NE3       30.10F
MIDLAND INTL   MOSUNNY   78  69  73 E8        30.09F
ODESSA         PTSUNNY   81  66  60 E15       30.10S
PECOS          PTSUNNY   89  60  38 SE14      30.00S
PRESIDIO       FAIR      90  61  38 NE23G35   29.96S
SEMINOLE       SUNNY     83  58  41 E10G16    30.13S
SNYDER           N/A     81  66  61 S12G17    30.12S
WINK           SUNNY     89  60  37 E10       30.04S
$$
...OTHER STATIONS IN TEXAS...

CITY           SKY/WX    TMP DP  RH WIND       PRES   REMARKS
ABILENE        MOSUNNY   83  68  60 SW7       30.08S
AMARILLO       MOSUNNY   84  61  45 S9        30.15S
AUSTIN         MOSUNNY   92  70  48 S8        30.02F
BROWNSVILLE    MOSUNNY   88  75  65 SE15      30.00S
CORPUS CHRISTI PTSUNNY   88  74  63 SE15      30.01S
DALLAS FTW     PTSUNNY   94  66  39 S10       29.99F
DEL RIO        PTSUNNY   92  68  45 SE14G24   29.94F
EL PASO        MOSUNNY   88  51  28 N20       30.06S
HOUSTON INT    PTSUNNY   88  73  61 SE7       30.02F
LUBBOCK        PTSUNNY   83  60  45 S13       30.12S
SAN ANGELO     CLOUDY    78  69  73 NW9       30.07S
SAN ANTONIO    CLOUDY    86  73  65 E8        30.04F
WACO           MOSUNNY   92  71  50 S13       30.01F
WICHITA FALLS  NOT AVBL
$$
...OTHER LOCATIONS IN NEW MEXICO...

CITY           SKY/WX    TMP DP  RH WIND       PRES   REMARKS
ALAMAGORDO     MOSUNNY   82  54  36 CALM      30.12F
ALBUQUERQUE    CLOUDY    77  51  40 E18G25    30.18F THUNDER
CANNON AFB     CLOUDY    75  65  70 VRB2      30.18S
CLOVIS         CLOUDY    72  63  73 SW5       30.18R
HOLLOMAN AFB   PTSUNNY   86  51  29 NW8       30.09F
ROSWELL        CLOUDY    84  61  45 E20       30.13R
RUIDOSO          N/A     75  48  38 E7        30.35S
SANTA FE       CLOUDY    81  43  26 S18G29    30.26F
TRUTH OR CONSE PTSUNNY   84  54  35 SW17G24   30.14F
TUCUMCARI      MOSUNNY   81  58  45 S7        30.16R
$$

USA.gov is the U.S. government's official web portal to all federal, state and local government web resources and services.